Location: Unspecified
(35.7250°N, 0.0000°E)
Time: 05:59:19
(UTC+00:00)

Courier 1B Rocket - Pass Details

Date: 25 June 2019
Orbit: 920 x 1202 km, 28.2° (Epoch: 14 July)

Event Time Altitude Azimuth Distance (km) Brightness Sun altitude
Exits shadow 02:41:09 28° 190° (S) 1,890 6.0 -20.0°
Maximum altitude 02:42:58 32° 164° (SSE) 1,741 6.0 -19.8°
Drops below altitude 10° 02:48:56 10° 104° (ESE) 2,808 7.7 -19.0°
Sets 02:51:49 0° 94° (E) 3,716 8.6 -18.6°
